Weather observations for the past three days for
San Antonio Boerne Stage Field
Metric (Imperial)
Date Time (cdt) Wind (kph) Vis. (km) Weather Sky Cond. Temperature (ºC) Relative Humidity Wind Chill (°C) Heat Index (°C) Pressure Precipitation (cm)
Air Dwpt 6 hour altimeter (cm) sea level (mb) 1 hr 3 hr 6 hr
Max. Min.
04 03:55 S 13 16.09 Fair CLR 16 12 77% 76.23 0.0
04 03:35 S 7 16.09 Fair CLR 16 12 77% 76.23 0.0
04 03:15 S 11 16.09 Fair CLR 16 12 77% 76.23 0.0
04 02:55 S 13 16.09 Fair CLR 16 12 77% 76.23 0.0
04 02:35 S 13 16.09 Fair CLR 16 12 77% 76.23 0.0
04 02:15 S 15 16.09 Fair CLR 16 12 77% 76.25 0.0
04 01:55 S 17 16.09 Fair CLR 16 12 77% 76.28 0.0
04 01:35 S 9 16.09 Fair CLR 16 12 77% 76.3 0.0
04 01:15 S 11 16.09 Fair CLR 17 12 73% 76.35 0.0
04 00:55 S 11 16.09 Fair CLR 17 12 73% 76.33 0.0
04 00:35 S 13 16.09 Fair CLR 17 11 68% 76.35 0.0
04 00:15 S 15 16.09 Fair CLR 17 11 68% 76.38 0.0
03 23:55 S 13 16.09 Fair CLR 17 11 68% 76.35 0.0
03 23:35 S 11 16.09 Fair CLR 17 11 68% 76.35 0.0
03 23:15 S 9 16.09 Fair CLR 17 10 64% 76.35 0.0
03 22:55 S 7 16.09 Fair CLR 17 10 64% 76.38 0.0
03 22:35 S 6 16.09 Fair CLR 16 10 68% 76.38 0.0
03 22:15 Calm 16.09 Fair CLR 15 9 68% 76.35 0.0
03 21:55 Calm 16.09 Fair CLR 15 9 68% 76.35 0.0
03 21:35 Calm 16.09 Fair CLR 16 10 68% 76.35 0.0
03 21:15 Calm 16.09 Fair CLR 16 10 68% 76.35 0.0
03 20:55 Calm 16.09 Fair CLR 17 10 64% 76.35 0.0
03 20:35 Calm 16.09 Fair CLR 18 9 56% 76.35 0.0
03 20:15 Calm 16.09 Fair CLR 20 8 46% 76.33 0.0
03 19:55 S 6 16.09 Fair CLR 21 8 43% 76.3 0.0
03 19:35 S 7 16.09 Fair CLR 21 7 40% 76.33 0.0
03 19:15 S 13 16.09 Fair CLR 22 7 38% 76.33 0.0
03 18:55 S 17 16.09 Fair CLR 22 6 36% 76.35 0.0
03 18:35 S 13 16.09 Fair CLR 23 6 33% 76.35 0.0
03 18:15 S 20 16.09 Fair CLR 23 7 36% 76.38 0.0
03 17:55 S 13 G 30 16.09 Fair CLR 23 6 33% 76.38 0.0
03 17:35 SE 19 16.09 Fair CLR 23 6 33% 76.38 0.0
03 17:15 S 20 G 28 16.09 Fair CLR 23 7 36% 76.38 0.0
03 16:55 S 11 G 30 16.09 Fair CLR 23 5 31% 76.4 0.0
03 16:35 S 9 16.09 Fair CLR 23 6 33% 76.45 0.0
03 16:15 S 15 16.09 Fair CLR 23 7 36% 76.45 0.0
03 15:55 S 15 G 26 16.09 Fair CLR 23 7 36% 76.5 0.0
03 15:35 S 17 16.09 Fair CLR 23 7 36% 76.53 0.0
03 15:15 S 13 G 26 16.09 Fair CLR 23 7 36% 76.56 0.0
03 14:55 S 19 16.09 Fair CLR 23 7 36% 76.58 0.0
03 14:35 S 6 16.09 Fair CLR 22 7 38% 76.61 0.0
03 14:15 Calm 16.09 Fair CLR 22 7 38% 76.61 0.0
03 13:35 S 9 16.09 Fair CLR 22 7 38% 76.66 0.0
03 13:15 SE 15 16.09 Fair CLR 22 8 41% 76.71 0.0
03 12:55 SW 19 16.09 Fair CLR 21 7 40% 76.71 0.0
03 12:35 S 7 G 26 16.09 Fair CLR 21 7 40% 76.76 0.0
03 12:15 S 13 16.09 Fair CLR 21 8 43% 76.78 0.0
03 11:55 S 17 16.09 Fair CLR 21 8 43% 76.81 0.0
03 11:35 SE 17 16.09 Fair CLR 21 8 43% 76.81 0.0
03 11:15 S 13 16.09 Fair CLR 20 8 46% 76.81 0.0
03 10:55 S 13 16.09 Fair CLR 20 7 43% 76.84 0.0
03 10:35 S 15 16.09 Fair CLR 20 8 46% 76.84 0.0
03 10:15 S 11 16.09 Fair CLR 19 8 49% 76.84 0.0
03 09:55 S 13 16.09 Fair CLR 18 8 52% 76.84 0.0
03 09:35 S 15 16.09 Fair CLR 18 9 56% 76.84 0.0
03 09:15 S 7 16.09 Fair CLR 17 9 60% 76.81 0.0
03 08:55 Calm 16.09 Fair CLR 16 11 72% 76.78 0.0
03 08:35 Calm 16.09 Fair CLR 13 11 88% 76.76 0.0
03 08:15 Calm 16.09 Fair CLR 12 12 100% 76.76 0.0
03 07:35 Calm 16.09 Fair CLR 8 8 100% 76.76 0.0
03 07:15 Calm 16.09 Fair CLR 7 7 100% 76.73 0.0
03 06:55 Calm 16.09 Fair CLR 7 7 100% 76.71 0.0
03 06:35 Calm 16.09 Fair CLR 7 7 100% 76.71 0.0
03 06:15 Calm 16.09 Fair CLR 7 7 100% 76.68 0.0
03 05:55 Calm 16.09 Fair CLR 7 7 100% 76.68 0.0
03 05:35 Calm 16.09 Fair CLR 7 7 100% 76.68 0.0
03 05:15 Calm 16.09 Fair CLR 7 7 100% 76.66 0.0
03 04:55 Calm 16.09 Fair CLR 8 8 100% 76.68 0.0
03 04:35 Calm 16.09 Fair CLR 8 8 100% 76.68 0.0
03 04:15 W 6 16.09 Fair CLR 7 7 100% 76.66 0.0
03 03:55 Calm 16.09 Fair CLR 8 8 100% 76.66 0.0
03 03:35 Calm 16.09 Fair CLR 8 8 100% 76.66 0.0
03 03:15 Calm 16.09 Fair CLR 8 8 100% 76.66 0.0
03 02:55 Calm 16.09 Fair CLR 8 8 100% 76.68 0.0
03 02:35 Calm 16.09 Fair CLR 8 8 100% 76.68 0.0
03 02:15 Calm 16.09 Fair CLR 9 9 100% 76.71 0.0
03 01:55 Calm 16.09 Fair CLR 9 9 100% 76.73 0.0
03 01:35 Calm 16.09 Fair CLR 9 9 100% 76.71 0.0
03 01:15 Calm 16.09 Fair CLR 10 10 100% 76.73 0.0
03 00:55 Calm 16.09 Fair CLR 10 10 100% 76.73 0.0
03 00:35 Calm 16.09 Fair CLR 10 10 100% 76.71 0.0
03 00:15 Calm 16.09 Fair CLR 10 10 100% 76.71 0.0
02 23:55 Calm 16.09 Fair CLR 10 10 100% 76.71 0.0
02 23:35 Calm 16.09 Fair CLR 10 9 94% 76.71 0.0
02 23:15 Calm 16.09 Fair CLR 11 10 94% 76.71 0.0
02 22:55 Calm 16.09 Fair CLR 11 10 94% 76.71 0.0
02 22:35 Calm 16.09 Fair CLR 11 10 94% 76.68 0.0
02 22:15 Calm 16.09 Fair CLR 12 9 82% 76.68 0.0
02 21:55 Calm 16.09 Fair CLR 12 8 77% 76.66 0.0
02 21:35 Calm 16.09 Fair CLR 13 8 72% 76.66 0.0
02 21:15 Calm 16.09 Fair CLR 13 8 72% 76.63 0.0
02 20:55 Calm 16.09 Fair CLR 15 8 63% 76.61 0.0
02 20:35 Calm 16.09 Fair CLR 17 7 52% 76.58 0.0
02 20:15 Calm 16.09 Fair CLR 19 6 43% 76.56 0.0
02 19:55 E 7 16.09 Fair CLR 20 6 40% 76.56 0.0
02 19:35 E 9 16.09 Fair CLR 20 6 40% 76.53 0.0
02 19:15 NE 7 16.09 Fair CLR 21 5 35% 76.56 0.0
02 18:35 NE 9 16.09 Fair CLR 21 6 38% 76.53 0.0
02 18:15 NE 9 16.09 Fair CLR 21 6 38% 76.53 0.0
02 17:55 N 6 16.09 Partly Cloudy SCT065 21 6 38% 76.53 0.0
02 17:35 N 7 16.09 Fair CLR 21 6 38% 76.53 0.0
02 17:15 NE 15 16.09 Fair CLR 22 6 36% 76.53 0.0
02 16:55 NE 13 16.09 Fair CLR 21 6 38% 76.56 0.0
02 16:35 NE 11 G 28 16.09 Fair CLR 21 6 38% 76.56 0.0
02 16:15 NE 9 G 15 16.09 Fair CLR 21 7 40% 76.58 0.0
02 15:35 N 13 16.09 Fair CLR 21 7 40% 76.61 0.0
02 15:15 NE 15 G 31 16.09 Fair CLR 21 7 40% 76.63 0.0
02 14:55 NE 15 16.09 Fair CLR 21 7 40% 76.63 0.0
02 14:35 NE 11 G 30 16.09 Fair CLR 20 8 46% 76.66 0.0
02 14:15 NE 19 G 30 16.09 Fair CLR 20 7 43% 76.66 0.0
02 13:35 E 7 16.09 Partly Cloudy SCT047 20 8 46% 76.68 0.0
02 13:15 E 17 16.09 Partly Cloudy SCT047 18 8 52% 76.71 0.0
02 12:55 N 15 16.09 Fair CLR 18 8 52% 76.71 0.0
02 12:35 NE 17 G 30 16.09 Fair CLR 18 8 52% 76.73 0.0
02 12:15 NE 13 16.09 Fair CLR 18 8 52% 76.76 0.0
02 11:55 NE 20 G 33 16.09 Fair CLR 17 8 56% 76.76 0.0
02 11:35 NE 19 G 30 16.09 Fair CLR 17 8 56% 76.76 0.0
02 11:15 NE 19 G 28 16.09 Fair CLR 17 7 52% 76.78 0.0
02 10:55 N 17 16.09 Fair CLR 16 7 55% 76.78 0.0
02 10:35 NE 15 16.09 Fair CLR 16 7 55% 76.76 0.0
02 10:15 NE 17 16.09 Fair CLR 15 7 59% 76.76 0.0
02 09:55 NE 13 16.09 Fair CLR 14 7 63% 76.73 0.0
02 09:35 NE 11 16.09 Fair CLR 13 7 67% 76.71 0.0
02 09:15 NE 13 16.09 Fair CLR 13 8 72% 76.71 0.0
02 08:55 NE 9 16.09 Fair CLR 12 7 72% 76.71 0.0
02 08:35 NE 11 16.09 Fair CLR 12 8 77% 76.68 0.0
02 07:55 N 7 16.09 Fair CLR 10 9 94% 9 76.66 0.0
02 07:35 N 11 16.09 Fair CLR 9 9 100% 8 76.63 0.0
02 07:15 N 11 16.09 Fair CLR 8 8 100% 6 76.58 0.0
02 06:55 N 7 16.09 Fair CLR 8 8 100% 7 76.58 0.0
02 06:35 N 7 16.09 Fair CLR 8 8 100% 7 76.56 0.0
02 06:15 N 7 16.09 Fair CLR 8 8 100% 7 76.56 0.0
02 05:55 N 7 16.09 Fair CLR 8 8 100% 7 76.53 0.0
02 05:35 N 9 16.09 Fair CLR 8 8 100% 7 76.53 0.0
02 05:15 N 7 16.09 Fair CLR 8 8 100% 7 76.53 0.0
02 04:55 N 7 16.09 Fair CLR 8 8 100% 7 76.5 0.0
02 04:35 N 6 16.09 Fair CLR 8 8 100% 76.48 0.0
02 04:15 Calm 16.09 Fair CLR 8 8 100% 76.45 0.0
02 03:55 NW 6 16.09 Fair CLR 8 8 100% 76.4 0.0
02 03:35 NW 7 16.09 Fair CLR 8 8 100% 7 76.38 0.0
02 03:15 NW 7 16.09 Fair CLR 9 9 100% 8 76.38 0.0
02 02:55 N 11 16.09 Fair CLR 9 9 100% 8 76.38 0.0
02 02:35 N 11 16.09 Fair CLR 9 9 100% 8 76.38 0.0
02 02:15 N 7 16.09 Fair CLR 9 9 100% 8 76.38 0.0
02 01:55 N 9 16.09 Fair CLR 9 9 100% 8 76.4 0.0
02 01:35 N 7 16.09 Fair CLR 10 10 100% 9 76.4 0.0
02 01:15 N 11 16.09 Fair CLR 10 10 100% 9 76.4 0.0
02 00:55 N 7 16.09 Fair CLR 10 10 100% 9 76.4 0.0
02 00:35 N 11 16.09 Fair CLR 10 10 100% 9 76.4 0.0
02 00:15 N 15 16.09 Fair CLR 10 10 100% 8 76.38 0.0
01 23:55 N 11 16.09 Fair CLR 10 10 100% 9 76.4 0.0
01 23:35 N 13 16.09 Fair CLR 10 10 100% 8 76.4 0.0
01 23:15 N 11 16.09 Mostly Cloudy BKN049 11 11 100% 76.38 0.0
01 22:55 N 17 G 30 16.09 Overcast SCT017 OVC049 11 10 94% 76.38 0.0
01 22:35 N 22 G 33 16.09 Overcast OVC017 11 11 100% 76.35 0.0
01 22:15 N 15 G 33 16.09 Overcast BKN019 OVC040 11 11 100% 76.35 0.0
01 21:55 N 20 G 26 16.09 Overcast SCT019 BKN047 OVC060 11 11 100% 76.33 0.0
01 21:35 N 17 16.09 Overcast SCT042 BKN049 OVC060 11 11 100% 76.3 0.0
01 21:15 N 17 16.09 Overcast OVC042 11 11 100% 76.28 0.0
01 20:55 N 17 G 28 16.09 Overcast SCT013 SCT018 OVC038 11 11 100% 76.25 0.0
01 20:35 NE 22 G 37 16.09 Overcast OVC013 12 12 100% 76.23 0.0
01 20:15 NE 22 G 31 16.09 Overcast BKN011 OVC018 12 12 100% 76.23 0.0
01 19:55 N 20 G 28 16.09 Overcast OVC011 12 12 100% 76.17 0.0
01 19:35 N 22 G 31 16.09 Overcast OVC011 12 12 100% 76.15 0.0
01 19:15 N 20 G 26 16.09 Overcast OVC011 12 12 100% 76.1 0.0
01 18:55 N 24 G 37 16.09 Overcast OVC011 12 12 100% 76.1 0.0
01 18:35 N 19 G 26 16.09 Overcast OVC011 13 13 100% 76.05 0.0
01 18:15 NE 17 G 30 16.09 Overcast OVC011 13 13 100% 76.02 0.0
01 17:55 NE 15 G 35 16.09 Overcast BKN013 OVC017 13 13 100% 75.97 0.0
01 17:35 N 20 G 35 16.09 Overcast OVC013 13 13 100% 75.97 0.0
01 17:15 N 19 G 35 16.09 Overcast OVC011 13 13 100% 76 0.0
01 16:55 N 20 G 37 16.09 Overcast OVC011 13 13 100% 76 0.0 0.03
01 16:35 N 20 G 41 16.09 Overcast OVC009 13 13 100% 75.97 0.0 0.03
01 16:15 N 19 G 30 16.09 Overcast BKN007 OVC034 14 14 100% 75.95 0.0 0.03
01 15:55 N 20 G 31 11.27 Overcast BKN007 BKN017 OVC041 13 13 100% 75.95 0.0 0.2
01 15:35 N 19 G 30 11.27 Overcast BKN007 OVC016 14 14 100% 76 0.0 0.13
01 15:15 N 13 G 28 16.09 Overcast OVC012 15 15 100% 75.97 0.0 0.08
01 14:55 N 19 G 26 11.27 Overcast BKN009 OVC014 15 15 100% 75.97 0.0 0.08
01 14:35 N 17 G 28 16.09 Overcast OVC009 15 15 100% 75.9 0.0
01 14:15 NE 11 16.09 Overcast BKN007 BKN012 OVC070 15 15 100% 75.84 0.0
01 13:55 NE 19 G 28 16.09 Overcast BKN007 BKN027 OVC100 15 15 100% 75.84 0.0 0.08
01 13:35 N 17 11.27 Overcast SCT009 BKN027 OVC035 14 14 100% 75.9 0.0 0.08
01 13:15 N 13 16.09 Overcast BKN009 OVC022 15 15 100% 76.07 0.0
01 12:55 N 24 16.09 Overcast OVC007 0 0 0% 75.97 0.0 0.25
01 12:35 N 17 G 30 16.09 Overcast SCT007 BKN013 OVC075 0 0 0% 75.97 0.0 0.23
01 12:15 N 20 G 28 8.05 Overcast SCT006 BKN010 OVC015 12 12 100% 76 0.0 0.15
01 11:55 NE 11 11.27 Overcast OVC008 15 15 100% 76.02 0.0 0.08
01 11:35 NE 11 16.09 Overcast OVC008 15 15 100% 75.9 0.0
01 11:15 NE 13 16.09 Overcast OVC005 15 15 100% 75.87 0.0
01 10:55 NE 15 16.09 Overcast OVC005 13 13 100% 75.95 0.0
01 10:35 NE 17 16.09 Overcast OVC005 0 0 0% 75.9 0.0
01 10:15 NE 11 16.09 Overcast OVC005 0 0 0% 75.92 0.0
01 09:55 E 19 11.27 Overcast OVC005 0 0 0% 75.9 0.0 0.08
01 09:35 NE 17 G 30 16.09 Overcast OVC005 0 0 0% 75.95 0.0 0.03
01 09:15 NE 20 G 28 16.09 Overcast OVC005 0 0 0% 75.97 0.0
01 08:55 NE 15 16.09 Overcast OVC007 0 0 0% 75.97 0.0 0.33
01 08:35 NE 9 16.09 Overcast OVC007 0 0 0% 76.02 0.0 0.33
01 08:15 NE 6 3.22 Overcast BKN007 OVC011 0 0 0% 76.07 0.0 0.3
01 07:55 NW 11 G 26 16.09 Overcast OVC007 0 0 0% 76.2 0.0 0.03
01 07:35 N 15 G 26 16.09 Overcast OVC007 0 0 0% 75.97 0.0
01 07:15 NE 13 16.09 Overcast OVC007 0 0 0% 75.95 0.0
01 06:55 NE 11 16.09 Overcast OVC007 0 0 0% 75.92 0.0 0.03
01 06:35 NE 11 16.09 Overcast OVC007 0 0 0% 75.95 0.0 0.03
01 06:15 N 15 G 31 16.09 Overcast OVC007 0 0 0% 75.87 0.0
01 05:55 NE 7 16.09 Overcast SCT005 BKN010 OVC025 0 0 0% 75.92 0.0 0.46
01 05:35 N 7 G 26 8.05 Overcast BKN009 BKN021 OVC049 0 0 0% 75.97 0.0 0.38
01 05:15 Calm 16.09 Overcast OVC007 0 0 0% 76.1 0.0 0.03
01 04:55 N 17 16.09 Overcast OVC007 0 0 0% 75.9 0.0 0.48
01 04:35 NE 11 G 31 16.09 Overcast OVC005 0 0 0% 75.92 0.0 0.48
01 04:15 N 15 G 28 4.83 Overcast OVC005 0 0 0% 75.87 0.0 0.46
Date Time (cdt) Wind (kph) Vis. (km) Weather Sky Cond. Air Dwpt Max. Min. Relative Humidity Wind Chill (°C) Heat Index (°C) altimeter (cm) sea level (mb) 1 hr 3 hr 6 hr
6 hour
Temperature (ºC) Pressure Precipitation (cm)